South Burlington, VT

8:38 AM EST on February 08, 2016 (GMT -0500)
Burlington International

Weather History for KBTV - July, 2013

Change the Weather History Date:

Saturday, July 27, 2013

  Actual Average Record
Temperature  
Mean Temperature 69 °F 71 °F  
Max Temperature 84 °F 81 °F 98 °F (1949)
Min Temperature 53 °F 60 °F 46 °F (2001)
Degree Days  
Heating Degree Days 0 0  
Month to date heating degree days 7 8  
Since 1 June heating degree days 72 81  
Since 1 July heating degree days 7 8  
Cooling Degree Days 4 6  
Month to date cooling degree days 258 162  
Year to date cooling degree days 420 278  
Since 1 June cooling degree days 373 259  
Growing Degree Days 18 (Base 50)    
Moisture  
Dew Point 55 °F    
Average Humidity 64    
Maximum Humidity 93    
Minimum Humidity 34    
Precipitation  
Precipitation 0.00 in 0.13 in 1.78 in (1949)
Month to date precipitation 4.32 3.61  
Year to date precipitation 29.45 19.61  
Snow  
Snow 0.00 in 0.00 in 0.00 in (2002)
Month to date snowfall 0.0 0.0  
Since 1 June snowfall 0.0 0.0  
Since 1 July snowfall 0.0 0.0  
Snow Depth 0.00 in    
Sea Level Pressure  
Sea Level Pressure 30.00 in    
Wind  
Wind Speed 4 mph (SSE)    
Max Wind Speed 12 mph    
Max Gust Speed 16 mph    
Visibility 10 miles    
Events      
T = Trace of Precipitation, MM = Missing Value Source: NWS Daily Summary

Daily Weather History Graph

Daily Weather History Graph

Search for Another Location

Airport or City:

Trip Planner

Search our weather history database for the weather conditions in past years. The results will help you decide how hot, cold, wet, or windy it might be!

Date:

Astronomy

Jul. 27, 2013 Rise Set
Actual Time 5:34 AM EDT 8:23 PM EDT
Civil Twilight 5:00 AM EDT 8:57 PM EDT
Nautical Twilight 4:17 AM EDT 9:39 PM EDT
Astronomical Twilight 3:26 AM EDT 10:29 PM EDT
Moon 10:52 PM EDT (7/27) 11:27 AM EDT (7/27)
Length of Visible Light 15h 56m
Length of Day
14h 49m
Waning Gibbous, 71% of the Moon is Illuminated
Jul 27
Waning Gibbous
Jul 29
Last Quarter
Aug 6
New
Aug 14
First Quarter
Aug 20
Full

Hourly Weather History & Observations

Time (EDT) Temp. Heat Index Dew Point Humidity Pressure Visibility Wind Dir Wind Speed Gust Speed Precip Events Conditions
12:54 AM 59.0 °F - 55.9 °F 90% 30.04 in 10.0 mi Calm Calm - N/A   Clear
1:54 AM 57.0 °F - 54.0 °F 89% 30.03 in 10.0 mi Calm Calm - N/A   Clear
2:54 AM 55.9 °F - 54.0 °F 93% 30.03 in 10.0 mi Calm Calm - N/A   Clear
3:44 AM 55.4 °F - 53.6 °F 94% 30.02 in 10.0 mi Calm Calm - N/A   Partly Cloudy
3:54 AM 55.0 °F - 53.1 °F 93% 30.02 in 10.0 mi Calm Calm - N/A   Partly Cloudy
4:54 AM 54.0 °F - 52.0 °F 93% 30.03 in 10.0 mi Calm Calm - N/A   Clear
5:54 AM 54.0 °F - 52.0 °F 93% 30.04 in 10.0 mi Calm Calm - N/A   Partly Cloudy
6:54 AM 57.0 °F - 55.0 °F 93% 30.04 in 10.0 mi Calm Calm - N/A   Clear
7:54 AM 62.1 °F - 55.9 °F 80% 30.05 in 10.0 mi Calm Calm - N/A   Clear
8:54 AM 66.9 °F - 57.9 °F 73% 30.04 in 10.0 mi South 4.6 mph - N/A   Clear
9:54 AM 72.0 °F - 57.9 °F 61% 30.04 in 10.0 mi SSW 5.8 mph - N/A   Clear
10:54 AM 73.9 °F - 57.9 °F 57% 30.03 in 10.0 mi South 5.8 mph - N/A   Partly Cloudy
11:54 AM 75.9 °F - 57.9 °F 54% 30.03 in 10.0 mi Calm Calm - N/A   Partly Cloudy
12:54 PM 80.1 °F 80.2 °F 55.9 °F 43% 30.00 in 10.0 mi SE 5.8 mph - N/A   Partly Cloudy
1:54 PM 81.0 °F 80.5 °F 54.0 °F 39% 30.00 in 10.0 mi SW 5.8 mph - N/A   Partly Cloudy
2:54 PM 82.9 °F - 52.0 °F 34% 29.99 in 10.0 mi Variable 5.8 mph - N/A   Partly Cloudy
3:54 PM 82.0 °F - 51.1 °F 34% 29.98 in 10.0 mi Variable 4.6 mph - N/A   Partly Cloudy
4:54 PM 81.0 °F 80.5 °F 54.0 °F 39% 29.96 in 10.0 mi South 5.8 mph - N/A   Partly Cloudy
5:54 PM 82.0 °F 81.3 °F 54.0 °F 38% 29.95 in 10.0 mi Variable 5.8 mph - N/A   Partly Cloudy
6:54 PM 80.1 °F 80.2 °F 55.9 °F 43% 29.94 in 10.0 mi South 6.9 mph - N/A   Partly Cloudy
7:54 PM 78.1 °F - 57.9 °F 50% 29.94 in 10.0 mi South 4.6 mph - N/A   Scattered Clouds
8:54 PM 73.0 °F - 60.1 °F 64% 29.95 in 10.0 mi ESE 5.8 mph - N/A   Partly Cloudy
9:54 PM 71.1 °F - 57.9 °F 63% 29.96 in 10.0 mi SE 5.8 mph - N/A   Clear
10:54 PM 70.0 °F - 57.0 °F 63% 29.95 in 10.0 mi ESE 5.8 mph - N/A   Clear
11:54 PM 68.0 °F - 57.0 °F 68% 29.94 in 10.0 mi ESE 5.8 mph - N/A   Clear